Location: Burland Observatory
(39.4088°N, 105.4217°W)
Time: 10:31:52
(UTC-07:00)

Hubble Space Telescope - Visible Passes

Search period start: 18 November 2019 00:00
Search period end: 28 November 2019 00:00
Orbit: 536 x 540 km, 28.5° (Epoch: 17 November)

Date Brightness Start Highest point End Pass type
(mag) Time Alt. Az. Time Alt. Az. Time Alt. Az.
18 Nov 3.6 19:15:06 10° SSW 19:15:19 11° SSW 19:15:19 11° SSW visible
19 Nov 3.3 19:04:10 10° SSW 19:05:22 14° SSW 19:05:22 14° SSW visible
20 Nov 3.0 18:53:20 10° SW 18:55:23 16° S 18:55:23 16° S visible
21 Nov 2.8 18:42:32 10° SW 18:45:18 17° S 18:45:24 17° S visible
22 Nov 2.8 18:31:48 10° SW 18:34:36 18° S 18:35:26 17° SSE visible
23 Nov 2.9 18:21:07 10° SW 18:23:53 18° S 18:25:30 14° SSE visible
24 Nov 3.0 18:10:29 10° SW 18:13:12 17° S 18:15:37 11° SE visible
25 Nov 3.2 17:59:53 10° SW 18:02:29 16° S 18:05:05 10° SSE visible
26 Nov 3.3 17:49:22 10° SW 17:51:47 15° S 17:54:11 10° SSE visible
27 Nov 3.4 17:38:55 10° SW 17:41:04 14° SSW 17:43:13 10° SSE visible
